Location: Saluda
(35.2377°N, 82.3468°W)
Time: 22:13:46
(UTC+00:00)

Tiros 1 - Pass Details

Date: 04 October 2022
Orbit: 629 x 662 km, 48.4° (Epoch: 08 December)

Event Time Altitude Azimuth Distance (km) Brightness Sun altitude
Exits shadow 10:15:32 14° 312° (NW) 1,809 9.1 -15.3°
Maximum altitude 10:19:36 69° 35° (NE) 690 7.4 -14.5°
Drops below altitude 10° 10:24:16 10° 119° (ESE) 2,027 10.6 -13.5°
Sets 10:26:35 0° 122° (ESE) 2,928 11.5 -13.1°
